Location: ??????
(44.5958°N, 34.0092°E)
Time: 01:54:19
(UTC+00:00)

Cosmos 1844 Rocket - Pass Details

Date: 06 June 2020
Orbit: 825 x 843 km, 71.0° (Epoch: 05 July)

Event Time Altitude Azimuth Distance (km) Brightness Sun altitude
Rises 00:33:53 0° 336° (NNW) 3,389 6.2 -12.2°
Reaches altitude 10° 00:36:22 10° 340° (NNW) 2,449 5.5 -11.9°
Maximum altitude 00:41:56 65° 62° (ENE) 914 3.2 -11.3°
Drops below altitude 10° 00:47:27 10° 144° (SE) 2,424 5.0 -10.6°
Sets 00:49:54 0° 147° (SSE) 3,351 5.7 -10.3°
